TimeEST,TemperatureF,Dew PointF,Humidity,Sea Level PressureIn,VisibilityMPH,Wind Direction,Wind SpeedMPH,Gust SpeedMPH,PrecipitationIn,Events,Conditions,WindDirDegrees,DateUTC
12:15 AM,28.4,24.8,86,30.43,10.0,South,3.5,-,N/A,,Clear,180,2013-01-19 05:15:00
12:35 AM,28.4,24.8,86,30.42,10.0,South,4.6,-,N/A,,Clear,170,2013-01-19 05:35:00
12:55 AM,26.6,24.8,93,30.41,10.0,South,5.8,-,N/A,,Clear,180,2013-01-19 05:55:00
1:15 AM,28.4,24.8,86,30.41,10.0,South,6.9,-,N/A,,Clear,170,2013-01-19 06:15:00
1:35 AM,28.4,24.8,86,30.41,10.0,SSE,6.9,-,N/A,,Clear,160,2013-01-19 06:35:00
1:55 AM,28.4,24.8,86,30.41,10.0,South,4.6,-,N/A,,Clear,170,2013-01-19 06:55:00
2:15 AM,28.4,24.8,86,30.41,10.0,South,4.6,-,N/A,,Clear,170,2013-01-19 07:15:00
2:35 AM,28.4,24.8,86,30.41,10.0,South,3.5,-,N/A,,Clear,170,2013-01-19 07:35:00
2:55 AM,28.4,26.6,93,30.40,10.0,South,5.8,-,N/A,,Clear,170,2013-01-19 07:55:00
3:15 AM,28.4,26.6,93,30.40,10.0,South,5.8,-,N/A,,Clear,180,2013-01-19 08:15:00
3:35 AM,30.2,26.6,86,30.39,10.0,South,10.4,-,N/A,,Clear,170,2013-01-19 08:35:00
3:55 AM,30.2,26.6,86,30.39,10.0,South,6.9,-,N/A,,Clear,180,2013-01-19 08:55:00
4:15 AM,30.2,26.6,86,30.38,10.0,South,6.9,-,N/A,,Clear,180,2013-01-19 09:15:00
4:35 AM,30.2,26.6,86,30.37,10.0,South,8.1,-,N/A,,Clear,180,2013-01-19 09:35:00
4:55 AM,30.2,26.6,86,30.36,10.0,South,9.2,-,N/A,,Clear,170,2013-01-19 09:55:00
5:15 AM,30.2,26.6,86,30.36,10.0,South,5.8,-,N/A,,Clear,180,2013-01-19 10:15:00
5:35 AM,30.2,26.6,86,30.36,10.0,South,6.9,-,N/A,,Clear,180,2013-01-19 10:35:00
5:55 AM,30.2,26.6,86,30.36,10.0,South,6.9,-,N/A,,Clear,190,2013-01-19 10:55:00
6:15 AM,32.0,26.6,80,30.36,10.0,South,6.9,-,N/A,,Clear,190,2013-01-19 11:15:00
6:45 AM,32.0,26.6,80,30.36,10.0,SSW,6.9,-,N/A,,Clear,200,2013-01-19 11:45:00
7:45 AM,32.0,26.6,80,30.35,10.0,SSW,6.9,-,N/A,,Clear,200,2013-01-19 12:45:00
7:55 AM,33.8,26.6,75,30.34,10.0,South,6.9,-,N/A,,Clear,180,2013-01-19 12:55:00
8:15 AM,33.8,26.6,75,30.35,10.0,South,6.9,-,N/A,,Clear,180,2013-01-19 13:15:00
8:35 AM,35.6,26.6,70,30.35,10.0,South,8.1,-,N/A,,Clear,180,2013-01-19 13:35:00
8:45 AM,35.6,28.4,75,30.35,10.0,South,9.2,-,N/A,,Clear,190,2013-01-19 13:45:00
8:55 AM,37.4,26.6,65,30.35,10.0,South,6.9,-,N/A,,Clear,190,2013-01-19 13:55:00
9:15 AM,37.4,26.6,65,30.35,10.0,SSW,9.2,-,N/A,,Clear,200,2013-01-19 14:15:00
9:35 AM,39.2,26.6,61,30.35,10.0,South,10.4,16.1,N/A,,Clear,190,2013-01-19 14:35:00
9:55 AM,41.0,26.6,57,30.34,10.0,SSW,10.4,18.4,N/A,,Clear,210,2013-01-19 14:55:00
10:15 AM,42.8,26.6,53,30.34,10.0,SSW,12.7,-,N/A,,Clear,200,2013-01-19 15:15:00
10:35 AM,44.6,26.6,49,30.33,10.0,SSW,11.5,17.3,N/A,,Clear,210,2013-01-19 15:35:00
10:55 AM,44.6,28.4,53,30.32,10.0,SSW,9.2,-,N/A,,Clear,210,2013-01-19 15:55:00
11:15 AM,46.4,28.4,50,30.30,10.0,SSW,9.2,-,N/A,,Clear,200,2013-01-19 16:15:00
11:35 AM,48.2,28.4,46,30.28,10.0,South,9.2,-,N/A,,Clear,180,2013-01-19 16:35:00
11:45 AM,48.2,28.4,46,30.36,10.0,SSW,8.1,-,N/A,,Clear,200,2013-01-19 16:45:00
11:55 AM,48.2,28.4,46,30.25,10.0,SSW,10.4,-,N/A,,Clear,210,2013-01-19 16:55:00
12:15 PM,51.8,26.6,38,30.23,10.0,SSW,10.4,16.1,N/A,,Clear,200,2013-01-19 17:15:00
12:35 PM,51.8,26.6,38,30.21,10.0,SSW,10.4,-,N/A,,Clear,210,2013-01-19 17:35:00
12:45 PM,53.6,26.6,35,30.21,10.0,SSW,8.1,16.1,N/A,,Clear,200,2013-01-19 17:45:00
12:55 PM,53.6,26.6,35,30.20,10.0,South,9.2,16.1,N/A,,Clear,190,2013-01-19 17:55:00
1:15 PM,53.6,26.6,35,30.19,10.0,SSW,9.2,-,N/A,,Clear,210,2013-01-19 18:15:00
1:35 PM,55.4,26.6,33,30.18,10.0,SSW,9.2,18.4,N/A,,Clear,210,2013-01-19 18:35:00
1:45 PM,55.4,28.4,36,30.18,10.0,SW,10.4,-,N/A,,Clear,220,2013-01-19 18:45:00
1:55 PM,55.4,26.6,33,30.17,10.0,SSW,12.7,17.3,N/A,,Clear,200,2013-01-19 18:55:00
2:15 PM,55.4,26.6,33,30.16,10.0,SSW,10.4,-,N/A,,Clear,200,2013-01-19 19:15:00
2:35 PM,55.4,26.6,33,30.15,10.0,SSW,13.8,-,N/A,,Clear,200,2013-01-19 19:35:00
2:45 PM,55.4,26.6,33,30.14,10.0,SSW,9.2,-,N/A,,Clear,210,2013-01-19 19:45:00
2:55 PM,55.4,26.6,33,30.14,10.0,SSW,10.4,16.1,N/A,,Clear,210,2013-01-19 19:55:00
3:15 PM,55.4,26.6,33,30.13,10.0,SSW,11.5,-,N/A,,Clear,210,2013-01-19 20:15:00
3:35 PM,55.4,26.6,33,30.12,10.0,South,15.0,19.6,N/A,,Clear,190,2013-01-19 20:35:00
3:45 PM,55.4,26.6,33,30.12,10.0,SSW,11.5,17.3,N/A,,Clear,210,2013-01-19 20:45:00
3:55 PM,53.6,26.6,35,30.11,10.0,SSW,10.4,16.1,N/A,,Clear,200,2013-01-19 20:55:00
4:15 PM,53.6,26.6,35,30.11,10.0,South,12.7,17.3,N/A,,Clear,190,2013-01-19 21:15:00
4:35 PM,53.6,26.6,35,30.10,10.0,SSW,9.2,-,N/A,,Clear,200,2013-01-19 21:35:00
4:50 PM,51.8,37.4,58,30.10,10.0,SSW,9.2,-,N/A,,Clear,200,2013-01-19 21:50:00
4:55 PM,51.8,26.6,38,30.10,10.0,South,8.1,-,N/A,,Clear,190,2013-01-19 21:55:00
5:15 PM,50.0,28.4,43,30.10,10.0,South,9.2,-,N/A,,Clear,190,2013-01-19 22:15:00
5:35 PM,48.2,28.4,46,30.10,10.0,South,6.9,-,N/A,,Clear,190,2013-01-19 22:35:00
5:45 PM,48.2,28.4,46,30.11,10.0,South,8.1,-,N/A,,Clear,190,2013-01-19 22:45:00
5:55 PM,48.2,28.4,46,30.10,10.0,South,8.1,-,N/A,,Clear,190,2013-01-19 22:55:00
6:15 PM,48.2,28.4,46,30.10,10.0,South,9.2,16.1,N/A,,Clear,190,2013-01-19 23:15:00
6:35 PM,46.4,28.4,50,30.10,10.0,South,9.2,-,N/A,,Clear,190,2013-01-19 23:35:00
6:55 PM,46.4,28.4,50,30.09,10.0,South,9.2,-,N/A,,Clear,190,2013-01-19 23:55:00
7:15 PM,46.4,28.4,50,30.09,10.0,SSW,6.9,-,N/A,,Clear,200,2013-01-20 00:15:00
7:35 PM,44.6,28.4,53,30.09,10.0,South,8.1,-,N/A,,Clear,180,2013-01-20 00:35:00
7:55 PM,44.6,28.4,53,30.08,10.0,South,11.5,-,N/A,,Clear,180,2013-01-20 00:55:00
8:15 PM,44.6,28.4,53,30.08,10.0,South,10.4,-,N/A,,Clear,190,2013-01-20 01:15:00
8:35 PM,44.6,28.4,53,30.08,10.0,South,10.4,-,N/A,,Clear,190,2013-01-20 01:35:00
8:45 PM,44.6,28.4,53,30.07,10.0,SSW,10.4,16.1,N/A,,Clear,210,2013-01-20 01:45:00
8:55 PM,44.6,28.4,53,30.07,10.0,South,11.5,17.3,N/A,,Clear,190,2013-01-20 01:55:00
9:15 PM,44.6,28.4,53,30.07,10.0,SSW,11.5,-,N/A,,Clear,200,2013-01-20 02:15:00
9:35 PM,44.6,28.4,53,30.06,10.0,SSW,10.4,-,N/A,,Clear,200,2013-01-20 02:35:00
9:55 PM,44.6,28.4,53,30.06,10.0,SSW,8.1,-,N/A,,Clear,200,2013-01-20 02:55:00
10:15 PM,44.6,28.4,53,30.05,10.0,SSW,12.7,-,N/A,,Clear,200,2013-01-20 03:15:00
10:35 PM,44.6,28.4,53,30.04,10.0,South,10.4,16.1,N/A,,Clear,190,2013-01-20 03:35:00
10:55 PM,44.6,28.4,53,30.03,10.0,South,10.4,-,N/A,,Clear,190,2013-01-20 03:55:00
11:15 PM,44.6,28.4,53,30.02,10.0,SSW,9.2,-,N/A,,Clear,200,2013-01-20 04:15:00
11:35 PM,44.6,28.4,53,29.99,10.0,South,10.4,-,N/A,,Clear,190,2013-01-20 04:35:00
11:55 PM,44.6,28.4,53,29.98,10.0,South,12.7,-,N/A,,Clear,190,2013-01-20 04:55:00